Regional Weather Roundup
Issued by NWS Cleveland, OH

Home | Current Version | Previous Version | Text Only | Print | Product List | Glossary Off
Versions: 1 2 3 4 5 6 7 8 9 10 11 12 13 14 15 16 17 18 19 20 21 22 23 24 25 26 27 28 29 30 31 32 33 34 35 36 37 38 39 40 41 42 43 44 45 46 47 48 49 50

000
ASUS41 KCLE 230512
RWRCLE
OHIO REGIONAL WEATHER ROUNDUP
NATIONAL WEATHER SERVICE WILMINGTON, OH
1200 AM EST THU FEB 23 2017

NOTE: "FAIR" INDICATES FEW OR NO CLOUDS BELOW 12,000 FEET WITH NO
SIGNIFICANT WEATHER AND/OR OBSTRUCTIONS TO VISIBILITY.

OHZ001>008-015>018-024>027-034-035-043-044-230600-
   NORTHWEST OHIO

CITY           SKY/WX    TMP DP  RH WIND       PRES   REMARKS
DEFIANCE       FAIR      55  52  89 S10       29.71F
FINDLAY        FAIR      55  51  86 S10       29.72F FOG
TOLEDO EXPRESS FAIR      56  55  97 S10       29.70F
TOLEDO EXEC    FAIR      57  55  93 S12       29.72S FOG
LIMA           FAIR      56  55  97 S9        29.74F
$$

OHZ009>014-019>023-028>033-038-089-230600-
   NORTHEAST OHIO

CITY           SKY/WX    TMP DP  RH WIND       PRES   REMARKS
CLE-HOPKINS    FAIR      58  51  78 S13       29.78F
CLE-LAKEFRONT  MOCLDY    59  52  77 S14       29.74F
CUY CO. ARPT   NOT AVBL
LORAIN-ELYRIA  MOCLDY    55  51  86 S10       29.75F
ASHTABULA      CLOUDY    56  52  86 S13       29.78F
AKRON-CANTON   CLOUDY    56  51  84 S13       29.80F
WOOSTER        MOCLDY    54  52  93 S12       29.79F
MANSFIELD      MOCLDY    55  54  96 S15       29.78F
YOUNGSTOWN     CLOUDY    56  50  80 S9        29.82F
$$

OHZ042-051>053-060>062-070>072-077>081-230600-
  SOUTHWEST OHIO

CITY           SKY/WX    TMP DP  RH WIND       PRES   REMARKS
CINC-COVINGTON FAIR      59  55  87 S7        29.79F
CINC-LUNKEN    FAIR      55  54  96 S6        29.80F
HAMILTON       FAIR      56  55  97 SE3       29.79F
DAYTON         FAIR      57  54  89 S12       29.78F
WRIGHT-PAT AFB PTCLDY    56  56 100 SE7       29.77F
DAYTON GENERAL FAIR      57  54  89 S10       29.77F
WILMINGTON     CLOUDY    57  56  96 S9        29.80F
$$

OHZ036-037-039>041-045>050-054>059-063>069-073>076-082>088-230600-
  CENTRAL AND SOUTHEAST OHIO

CITY           SKY/WX    TMP DP  RH WIND       PRES   REMARKS
COLUMBUS       FAIR      58  54  86 S8        29.80F
OSU AIRPORT    FAIR      56  55  97 S10       29.79F
BOLTON FIELD   FAIR      54  54  99 S9        29.81S
RICKENBACK AFB MOCLDY    55  54  98 S7        29.80F
NEWARK         CLOUDY    56  53  90 S8        29.81F
MARION         FAIR      55  52  89 S14       29.77F FOG
LANCASTER      MOCLDY    58  54  86 SE8       29.82F
ZANESVILLE     CLOUDY    55  53  93 S10       29.83F
NEW PHILLY     CLOUDY    55  53  93 SE7       29.83F
$$



USA.gov is the U.S. government's official web portal to all federal, state and local government web resources and services.